Regional Weather Roundup
Issued by NWS State College, PA

Home | Current Version | Previous Version | Text Only | Print | Product List | Glossary Off
Versions: 1 2 3 4 5 6 7 8 9 10 11 12 13 14 15 16 17 18 19 20 21 22 23 24 25 26 27 28 29 30 31 32 33 34 35 36 37 38 39 40 41 42 43 44 45 46 47 48 49 50

000
ASUS41 KCTP 291110
RWRCTP

REGIONAL WEATHER ROUNDUP
NATIONAL WEATHER SERVICE STATE COLLEGE PA
600 AM EST THU JAN 29 2015

Note: "fair" indicates few or no clouds below 12,000 feet with no
significant weather and/or obstructions to visibility.

* = STATION THAT DOES NOT REPORT PRECIPITATION /E.G. RAIN...SNOW...ETC/
    THUNDER OR FOG.

PAZ002>004-007>009-013>016-020>023-029>032-291200-
WESTERN PENNSYLVANIA

CITY           SKY/WX    TMP DP  RH WIND       PRES   REMARKS
ERIE           CLOUDY    27   4  37 SE20G28   30.02F WCI  13
MEADVILLE      CLOUDY    21   7  54 VRB3      30.02F
FRANKLIN*      CLOUDY    18   9  68 SE9       30.08F WCI   6
NEW CASTLE     FAIR      21  11  65 CALM      30.08F
BEAVER COUNTY  NOT AVBL
BUTLER*        MOCLDY    19   9  63 E9        30.10F WCI   9
PITTSBURGH INT CLOUDY    22  13  68 SE6       30.09F WCI  14
PITTSBURGH     CLOUDY    20   8  60 SE7       30.09F WCI  11
INDIANA*       CLOUDY    16  10  79 CALM      30.16F
LATROBE        CLOUDY    16  12  86 CALM      30.13F
WASHINGTON CO* CLOUDY    21  14  73 CALM      30.11F
$$

PAZ004>006-010>012-017>019-024>028-033>037-041-042-045-046-049>053-291200-
CENTRAL PENNSYLVANIA

CITY           SKY/WX    TMP DP  RH WIND       PRES   REMARKS
BRADFORD       CLOUDY    14   4  64 SE6       30.07F WCI   5
DUBOIS         CLOUDY    15   5  64 E13       30.09F WCI   1
CLEARFIELD     CLOUDY     6   2  83 NE5       30.17F WCI  -3
JOHNSTOWN      MOCLDY    21   4  47 S8        30.10F WCI  11
ALTOONA        MOCLDY    11   5  77 SE3       30.20F
STATE COLLEGE  CLEAR      5   1  85 W6        30.24F WCI  -6
WILLIAMSPORT   PTCLDY     3  -3  76 CALM      30.32S
SELINSGROVE    PTCLDY    -1  -5  82 NW5       30.33S WCI -11
FT INDIANTOWN  PTCLDY     5  -1  77 CALM      30.30S
CAPITAL CITY   PTCLDY     2   2 100 W3        30.32S
HARRISBURG     PTCLDY    14   6  70 NW6       30.31S WCI   5
YORK           PTCLDY     4   1  88 CALM      30.30F
$$

PAZ038>040-043-044-047-048-054-055-060>062-067>071-291200-
EASTERN PENNSYLVANIA

CITY           SKY/WX    TMP DP  RH WIND       PRES   REMARKS
SCRANTON       PTCLDY     5   0  79 SE5       30.27S WCI  -4
MOUNT POCONO   MOCLDY    -1  -6  79 W6        30.18S WCI -13
ALLENTOWN      PTCLDY     4  -3  73 W3        30.31R
QUAKERTOWN*    MOSUNNY    1   0  92 CALM      30.30R
READING        PTCLDY     8   1  73 CALM      30.32R
LANCASTER      PTCLDY     8   1  73 CALM      30.30S
COATESVILLE    MOSUNNY   21   3  45 NW5       30.29R WCI  15
POTTSTOWN      PTCLDY     8   1  73 CALM      30.32S
BLUE BELL      CLEAR     12   7  79 CALM      30.31R
DOYLESTOWN     CLEAR     10   2  69 CALM      30.30R
WILLOW GROVE   NOT AVBL
NORTH PHILA    CLEAR     16   2  54 CALM      30.34R
PHILADELPHIA   PTCLDY    22   5  48 N6        30.33S WCI  14
$$


USA.gov is the U.S. government's official web portal to all federal, state and local government web resources and services.